星链-32234 (STARLINK-32234)

导读

STARLINK-32234是美国SpaceX公司于2024年8月10日发射的星链系列低轨通信卫星,隶属于星链互联网星座。该卫星继承星链技术路线,依托猎鹰9号火箭发射,具备增强型通信能力,可配合星座实现全球高速卫星互联网覆盖,填补偏远地区等地面网络盲区,助力SpaceX完成星链星座的组网扩容,推动全球太空通信基础设施建设。

Basic Information
目录编号:
60414
目录名称:
STARLINK-32234
国际标识:
2024-141S
轨道中心:
EARTH
卫星名称:
星链-32234 (STARLINK-32234)
卫星全名:
星链-32234 (STARLINK-32234)
卫星状态:
在轨 (已飞行676 天)
发射日期:
2024-08-10 UTC
国别 :
美国 (US)
星等 :
--
Orbit Information
数据来源 国际轨道数据 AOE轨道数据
星历时间 2026-06-17T13:07:14+0800
7小时前
查看轨道信息
2026-06-13T06:00:00+0800
4天前
查看轨道信息
半长轴 6848.862km 6848.843km
偏心率 0.0001259 0.0001436
轨道倾角 53.160° 53.161°
近地点辐角 91.729° 121.919°
升交点赤经 139.920° 159.927°
平近点角 268.385° 292.505°
近地点 469.862km 469.722km
远地点 471.588km 471.69km
周期 94.013分钟 94.012分钟
每日圈数 15.317053 15.317117
Detailed Information
卫星平台:
Starlink v2.0 mini
运营商:
太空探索技术公司
运营商所在国:
美国
制造商(研发单位):
太空探索技术公司
制造商所在国:
美国
使用方式:
暂无
Satellite Introduction
星链(Starlink)计划是由太空探索技术公司(SpaceX)提出的一个巨型低轨卫星互联网星座项目,计划在2019年至2024年间在太空搭建由约1.2万颗卫星组成的“星链”网络,其中1584颗将部署在地球上空550千米处的近地轨道,并从2020年开始工作。该卫星仍在工作。
2D Orbit Map
3D Orbit Map
Orbit Altitude Analysis Chart
Orbit Inclination Analysis Chart
Orbit Comprehensive Analysis Chart
View Comprehensive Chart